Flag for Poland Weather past 2 weeks in Olsztyn, Poland

Now
50 °F

Overcast.


Feels Like: 50 °F
Forecast: 49 / 71 °F
Wind: 1 mph from East

Location: Ketrzyn

Current Time: Sep 3, 2014 at 4:40:20 AM

Latest Report: Sep 3, 2014 at 4:00 AM


Visibility: 13 mi

Pressure: 30.33 "Hg

Humidity: 93%

Dew point: 48 °F

Location of OlsztynLocation

Historic Weather in Olsztyn — Graph

°F

Olsztyn temperature yesterday

Maximum temperature yesterday: 65 °F (at 2:00 PM)
Minimum temperature yesterday: 45 °F (at 6:00 AM)
Average temperature yesterday: 56 °F

Past Weeks' High & Low Weather Summary

 TemperatureHumidityPressure
High71 °F (Aug 23, 3:00 PM)99% (Aug 29, 6:00 AM)30.33 "Hg (Aug 29, 6:00 AM)
Low45 °F (Sep 2, 6:00 AM)38% (Aug 28, 4:00 PM)29.68 "Hg (Aug 26, 6:00 PM)
Average57 °F74%29.93 "Hg
* Reported Aug 19 3:00 AM — Sep 3 3:00 AM, Olsztyn, Weather by CustomWeather, © 2014

Note: Actual official high and low records may vary slightly from our data, if they occured in-between our weather recording intervals... More about our weather records

Advertising

Olsztyn weather history for previous 24 hours

 ConditionsComfort  
Time TempWeatherWind HumidityBarometerVisibility
3:00 AM
Sep 3
51 °FPassing clouds.1 mph88%30.33 "Hg14 mi
2:00 AM52 °FPassing clouds.2 mph87%30.32 "Hg12 mi
1:00 AM53 °FPassing clouds.3 mph85%30.31 "Hg19 mi
12:00 AM54 °FPassing clouds.3 mph81%30.31 "Hg25 mi
11:00 PM
Sep 2
55 °FPassing clouds.2 mph78%30.30 "Hg25 mi
10:00 PM57 °FPassing clouds.2 mph72%30.29 "Hg19 mi
9:00 PM58 °FOvercast.2 mph69%30.27 "Hg25 mi
8:00 PM59 °FOvercast.2 mph67%30.26 "Hg22 mi
7:00 PM60 °FOvercast.3 mph65%30.24 "Hg22 mi
6:00 PM61 °FOvercast.3 mph64%30.22 "Hg28 mi
5:00 PM62 °FOvercast.3 mph61%30.22 "Hg25 mi
4:00 PM63 °FPartly sunny.7 mph59%30.21 "Hg19 mi
3:00 PM64 °FPartly sunny.5 mph62%30.20 "Hg19 mi
2:00 PM65 °FPartly sunny.5 mph57%30.20 "Hg18 mi
1:00 PM63 °FPartly sunny.5 mph58%30.20 "Hg19 mi
12:00 PM62 °FPartly sunny.3 mph61%30.19 "Hg12 mi
11:00 AM61 °FPartly sunny.3 mph64%30.19 "Hg19 mi
10:00 AM60 °FOvercast.6 mph66%30.19 "Hg25 mi
9:00 AM58 °FPartly sunny.2 mph78%30.18 "Hg25 mi
8:00 AM53 °FPartly sunny.2 mph91%30.18 "Hg17 mi
7:00 AM46 °FPartly sunny.No wind95%30.18 "Hg13 mi
6:00 AM45 °FFog.1 mph96%30.16 "Hg16 mi
5:00 AM46 °FPassing clouds.1 mph95%30.16 "Hg19 mi
4:00 AM46 °FPassing clouds.No wind93%30.16 "Hg16 mi
Weather by CustomWeather, © 2014

See weather overviewHow to use our weather pages